Theta_e
328 328 327 326 326 325 323 321 318 316 315 314 313 312 311 309 307 307 309 310 311 312 313 314 316 317 302 291 291 299 310 306 301 300 297 296 294 292 288 288 288 286 286 288 289 289 287
328 328 327 326 325 324 323 321 320 317 317 314 313 312 311 309 307 307 308 309 310 312 313 314 315 316 295 289 298 299 299 300 298 297 295 295 294 293 289 286 287 285 287 287 288 287 288
328 328 327 326 325 324 322 321 320 319 317 316 313 313 311 309 307 307 307 308 310 311 312 314 315 303 293 290 297 298 300 298 297 297 294 295 295 292 289 286 288 286 285 286 286 286 285
328 328 327 326 325 324 322 321 320 319 317 316 314 312 311 309 307 306 307 308 310 311 312 313 313 295 288 297 296 298 299 296 298 297 296 296 295 292 289 288 287 283 282 279 283 285 285
328 327 327 326 325 324 323 321 320 319 317 316 314 312 311 310 307 306 306 308 310 312 312 312 295 290 286 301 294 297 297 295 296 296 297 297 294 288 287 282 279 280 276 277 280 286 284
321 326 326 326 325 324 323 321 320 318 317 316 313 313 311 310 308 306 306 308 309 306 304 299 294 286 288 288 293 295 295 296 293 292 292 291 287 283 282 280 277 277 277 278 277 282 282
315 317 318 325 325 324 323 321 320 319 317 316 314 313 311 310 308 306 302 296 289 287 292 285 287 287 289 292 295 293 295 293 292 290 282 286 282 280 281 281 281 280 279 277 278 282 281
312 313 314 316 320 324 323 321 320 320 318 316 314 313 312 310 308 305 298 288 288 290 283 292 292 291 292 292 287 291 295 287 286 282 283 282 279 282 285 285 282 280 279 277 279 281 281
310 311 312 313 314 317 323 321 320 320 318 315 313 313 312 310 307 300 295 296 298 296 288 288 292 291 290 292 287 288 292 288 284 283 281 279 281 286 284 282 281 279 278 278 278 279 279
306 308 310 310 311 312 315 321 320 318 317 315 313 312 311 309 297 294 293 299 298 296 281 285 288 290 292 292 286 292 292 288 284 282 283 281 284 284 281 280 281 278 281 280 280 277 274
305 306 307 308 309 310 311 313 319 317 316 314 313 312 311 306 292 293 294 299 297 295 271 286 286 295 292 287 287 287 291 288 283 283 282 280 281 281 281 281 283 280 282 281 279 277 275
302 303 305 305 307 309 310 311 318 317 316 314 312 312 310 301 298 298 299 297 294 279 270 281 286 286 285 286 286 288 287 289 287 283 283 281 284 282 282 283 283 283 281 280 277 276 267
302 302 302 304 304 306 309 310 312 317 316 314 312 311 307 301 294 299 298 292 278 271 282 279 281 284 283 283 284 284 283 282 280 277 277 280 280 282 284 281 282 280 277 266 267 264 268
303 302 302 302 304 304 306 308 310 316 315 314 312 310 306 300 299 299 295 285 268 272 276 283 283 282 281 284 283 283 281 279 281 280 276 277 275 281 283 281 280 278 277 271 265 265 269
303 303 302 302 302 303 303 304 306 308 315 313 312 305 300 299 300 298 289 277 275 277 282 282 282 278 278 282 283 282 279 278 281 281 281 276 276 280 282 282 281 279 275 278 267 261 266
305 304 304 303 302 302 303 303 304 305 308 312 304 299 296 300 301 296 284 281 279 284 285 283 281 279 276 278 280 280 279 282 281 283 282 280 275 279 280 281 281 279 279 273 269 265 263
305 305 305 305 304 302 304 303 305 307 308 311 301 294 296 301 299 288 279 280 283 287 288 285 283 279 281 278 281 280 281 283 283 282 284 281 280 276 279 278 277 275 273 274 275 273 268
306 306 306 306 306 304 303 303 303 304 307 308 297 286 297 299 284 284 283 281 287 286 289 287 286 283 281 281 280 280 281 283 285 285 281 282 278 272 275 277 278 278 277 276 270 269 270
305 306 306 306 306 305 303 304 303 302 304 302 288 285 297 296 283 281 286 283 284 285 286 286 285 287 284 282 281 281 282 284 285 284 283 282 274 268 272 275 275 276 277 277 270 270 268
304 304 304 305 306 306 305 304 304 302 301 297 287 280 284 287 288 286 286 284 284 285 286 287 286 286 283 278 282 280 282 282 284 284 290 287 275 275 277 278 276 274 275 277 274 266 269
303 303 304 304 304 305 305 305 304 303 303 298 287 283 285 280 282 284 287 285 284 281 285 288 284 285 282 278 278 280 280 281 284 286 283 282 274 271 272 275 275 276 276 276 276 279 275
303 303 303 303 304 304 305 305 305 304 302 290 283 282 283 281 285 284 286 286 284 285 283 282 284 286 286 286 286 280 281 281 282 282 280 280 275 273 270 274 275 274 277 277 278 279 277
303 303 302 303 304 304 304 305 305 304 298 287 285 285 286 284 283 283 284 286 287 286 286 287 287 284 284 288 286 288 285 286 286 283 281 278 273 273 271 272 271 272 275 276 276 275 278
300 301 302 303 303 303 304 304 304 304 301 288 287 288 284 281 283 283 284 286 287 288 286 286 286 285 286 290 291 288 285 283 282 279 282 277 276 277 269 272 270 280 277 282 280 281 280
299 299 301 302 303 303 303 304 304 304 304 289 287 287 285 281 284 283 283 285 287 289 287 286 285 288 291 289 285 283 282 283 280 277 276 277 278 274 276 271 279 282 276 277 276 279 283
298 298 298 300 302 302 303 303 303 304 304 295 289 290 286 278 280 284 283 284 283 285 286 285 285 290 289 286 284 279 278 281 278 270 275 277 277 280 272 271 272 282 285 280 282 278 285
298 298 298 297 299 301 302 302 303 303 303 298 292 292 287 280 278 287 285 283 286 286 284 283 284 285 288 284 281 279 279 281 277 278 273 270 271 275 279 279 282 283 280 285 278 281 289
297 297 297 299 297 299 301 302 302 303 303 299 294 294 289 274 275 285 287 286 285 287 282 283 284 284 284 281 281 282 281 282 277 279 279 276 275 276 275 277 277 281 282 285 290 285 288
297 297 297 299 299 299 301 301 302 302 302 301 291 294 292 285 277 278 284 287 290 290 287 286 283 285 286 284 283 284 282 280 281 279 281 279 284 283 284 283 281 281 289 288 285 287 283
Wind_Speed
25 24 23 21 18 18 20 17 15 14 12 11 9 8 7 5 3 3 4 5 7 6 7 7 8 10 2 3 0 4 13 10 3 2 4 2 3 4 6 5 3 5 3 6 6 10 8
26 25 24 23 21 19 18 19 16 14 13 12 11 9 8 6 4 4 4 5 6 7 7 7 9 9 1 2 2 5 8 5 4 4 3 5 4 5 7 5 5 3 7 5 6 6 5
26 26 24 23 23 21 19 19 18 15 14 13 13 11 9 7 5 4 5 6 7 7 8 7 8 3 3 2 3 6 6 3 3 2 4 1 5 7 5 6 4 2 7 6 5 2 3
27 25 25 24 23 22 21 19 20 18 15 15 12 12 11 8 5 4 5 7 6 7 7 6 6 1 2 2 2 3 6 2 5 5 5 5 8 10 6 5 7 6 6 4 3 3 4
25 24 24 24 23 23 22 21 21 20 18 17 13 13 12 9 6 5 5 6 7 6 5 5 1 1 1 3 2 4 3 3 3 4 5 3 7 5 4 6 5 6 4 4 2 7 5
8 21 24 24 24 24 22 22 22 22 20 18 15 13 13 10 7 5 5 7 5 3 1 1 1 3 0 3 1 3 3 2 4 3 4 8 7 5 4 3 6 8 4 4 5 6 4
11 12 11 24 24 25 24 24 24 24 22 20 18 17 14 11 7 5 3 5 5 4 4 3 0 1 1 0 1 3 3 2 3 8 4 2 6 6 8 3 3 7 4 3 2 1 4
9 11 12 10 4 25 26 25 26 25 24 23 20 18 16 13 8 2 1 3 5 4 2 1 2 3 0 2 3 1 0 5 3 4 4 6 4 3 6 3 4 4 3 3 2 1 4
11 10 10 11 12 11 25 28 27 27 26 24 22 20 17 13 9 3 2 5 0 1 4 3 3 4 4 3 1 6 3 5 5 5 6 6 1 3 5 5 5 1 3 3 0 2 3
9 10 10 11 13 13 10 25 28 28 27 26 24 22 19 17 5 5 4 4 3 1 5 5 5 4 3 5 2 0 2 2 2 9 7 3 2 5 3 4 5 2 4 4 6 4 3
6 9 10 10 11 12 13 13 25 27 28 28 27 26 24 17 7 5 4 7 4 4 1 1 3 0 3 6 4 2 2 3 7 7 7 5 6 5 3 3 4 3 5 7 3 4 3
4 6 7 8 10 12 13 15 19 26 27 28 29 29 26 4 1 3 5 8 5 10 12 1 3 5 6 1 2 3 2 6 3 5 6 4 2 2 3 3 2 9 7 7 5 3 4
5 4 5 5 8 9 12 14 15 26 28 30 31 32 21 9 5 6 5 4 7 7 4 5 5 6 3 5 3 3 6 6 8 6 4 2 1 0 3 7 4 3 7 4 6 5 7
7 6 4 6 4 9 10 13 18 11 25 28 28 27 11 1 7 9 4 6 7 5 8 2 4 5 7 6 2 4 6 5 5 4 4 8 5 8 4 3 8 5 6 9 9 4 4
9 7 6 5 6 4 8 9 12 14 20 28 29 8 6 1 2 5 7 9 10 9 8 12 4 6 3 2 5 4 7 6 9 12 8 7 1 2 3 2 3 6 4 4 10 2 5
12 9 8 7 6 5 4 8 7 11 10 27 10 7 5 9 5 10 4 18 6 4 7 3 9 5 10 9 7 7 10 7 7 11 3 9 5 2 0 2 2 2 5 5 4 4 5
13 11 12 9 8 7 5 5 6 9 13 29 7 7 6 12 4 9 10 11 12 6 6 8 9 7 5 10 8 7 7 3 5 7 5 6 5 2 2 8 9 2 2 4 3 5 8
14 12 12 11 11 9 7 6 7 6 14 18 4 5 11 16 10 3 14 11 7 11 5 5 4 3 9 11 8 8 12 5 4 11 11 5 6 5 7 2 2 4 7 8 7 7 2
16 15 14 14 13 12 11 9 7 3 7 1 5 3 6 13 11 12 4 5 4 10 8 9 8 4 3 9 4 7 7 2 4 7 12 10 2 4 6 3 2 7 7 5 4 3 7
17 17 18 17 15 15 14 12 10 6 2 1 6 5 1 6 3 18 17 11 15 10 9 7 7 6 6 3 2 7 7 1 2 3 1 6 3 9 11 7 8 8 9 13 8 4 6
20 19 19 19 19 17 17 16 14 10 8 1 2 4 5 12 17 7 12 9 15 12 12 16 4 10 11 6 2 6 3 4 3 3 3 5 6 4 3 1 3 5 8 21 22 24 12
21 22 22 21 21 21 19 19 17 15 13 4 3 3 2 1 12 20 10 19 24 25 12 17 19 26 18 17 24 16 11 4 8 3 4 0 3 3 4 1 3 7 8 14 21 16 19
23 23 23 23 23 22 22 21 20 20 12 3 1 2 1 7 9 11 22 22 21 6 15 12 23 6 9 19 4 5 2 8 12 14 9 6 7 5 7 3 3 16 20 18 10 8 13
23 23 24 25 25 26 25 24 24 24 19 5 4 3 2 3 10 18 9 22 23 18 25 11 7 19 6 12 14 10 11 10 6 5 2 8 7 3 3 3 12 3 2 22 25 18 21
23 25 26 26 27 27 26 27 26 27 27 4 4 5 4 4 6 9 15 10 14 18 7 8 3 2 11 6 5 4 2 3 2 1 2 3 5 3 5 7 14 21 5 11 13 21 21
19 20 23 24 27 28 29 29 29 29 29 8 4 3 4 3 12 4 7 11 11 10 13 6 2 6 5 4 4 11 11 9 12 1 1 1 3 5 4 5 17 9 16 11 9 20 15
24 24 23 22 25 28 30 30 30 30 30 13 4 7 4 4 4 5 8 8 8 5 2 5 8 3 4 9 9 10 13 6 10 17 11 4 0 15 13 13 17 7 11 11 10 6 14
24 26 26 26 26 27 32 32 32 32 31 21 7 12 10 3 4 9 7 5 3 7 7 5 5 3 8 11 10 7 7 11 3 5 16 17 15 10 3 5 28 10 9 24 16 3 8
24 28 28 29 28 29 32 33 33 33 33 30 7 11 6 4 5 4 4 5 7 5 4 10 5 7 6 7 6 5 6 7 10 16 3 12 16 16 18 16 1 10 14 14 5 8 6
Wind_Direction
202 201 200 200 197 187 180 182 204 217 216 215 221 217 210 231 255 291 310 322 330 328 325 332 330 325 327 60 209 321 331 337 8 77 65 54 73 106 114 101 77 80 123 51 79 87 77
202 203 199 199 197 194 185 178 187 212 213 214 220 214 215 216 244 273 298 313 324 324 322 329 332 323 244 155 314 322 329 351 32 62 44 39 123 115 92 61 65 82 78 90 39 78 83
203 202 202 201 198 195 190 177 185 195 210 202 214 201 212 218 229 261 291 309 321 322 318 324 326 330 63 146 334 323 2 358 0 53 104 45 126 75 129 87 156 71 73 52 25 38 115
201 201 202 203 201 195 194 188 181 190 205 201 199 204 200 213 223 249 282 301 311 307 308 310 327 6 156 302 293 17 336 19 19 51 85 103 82 100 72 120 39 66 58 116 247 168 189
196 200 202 204 203 199 197 193 185 189 191 192 193 206 191 199 214 247 277 294 300 297 294 313 47 94 235 330 46 329 11 78 344 42 59 84 71 86 45 91 48 13 182 187 251 206 151
55 216 202 204 204 203 201 198 189 189 186 188 187 189 189 193 205 242 277 294 294 332 4 326 24 47 22 192 49 339 333 40 98 81 46 46 51 72 62 94 202 189 201 222 209 217 173
43 45 41 216 207 204 201 200 196 190 184 185 183 178 185 185 199 226 306 94 39 344 44 184 97 62 125 306 102 43 9 62 54 52 128 34 92 194 201 168 69 130 120 190 248 197 166
28 31 26 24 316 209 204 200 195 193 186 182 180 170 174 180 175 202 101 180 203 161 140 276 124 98 55 221 107 232 103 128 134 141 100 37 222 177 142 154 91 109 125 221 305 195 182
24 35 28 22 14 347 214 201 195 192 187 179 175 166 165 167 149 97 234 227 4 135 110 226 208 167 176 143 220 191 156 149 131 133 164 152 188 131 128 152 140 88 172 179 161 28 283
23 9 26 25 20 8 337 207 196 189 184 175 168 161 156 148 123 163 219 233 133 326 55 232 220 240 117 132 249 113 330 149 91 156 143 160 159 155 127 165 125 174 156 127 123 102 248
12 18 10 22 14 6 2 330 199 189 180 171 166 160 157 162 136 161 216 144 118 60 325 215 166 312 139 153 120 321 346 17 157 142 128 208 156 149 152 192 163 170 115 112 96 88 48
360 5 7 0 6 359 358 356 209 188 182 170 166 159 157 133 73 245 125 115 56 50 245 178 117 163 123 95 100 117 76 63 132 81 34 94 72 41 125 71 37 153 83 56 70 64 2
307 324 359 352 360 345 5 4 347 193 181 172 168 162 158 144 180 142 131 84 56 174 323 218 183 164 129 142 123 138 159 164 156 116 198 52 157 269 136 84 14 94 93 360 356 18 223
270 302 327 336 350 345 346 357 356 220 181 170 165 158 154 119 144 129 93 51 182 222 189 157 112 105 167 156 174 147 129 195 225 99 130 155 281 171 176 178 178 187 151 159 195 185 256
273 273 291 299 330 316 346 340 347 351 191 172 156 139 121 185 197 104 105 204 215 196 168 141 71 105 234 228 142 143 195 208 203 176 170 143 222 37 70 92 91 193 197 159 104 71 61
256 256 265 277 281 298 308 341 331 325 327 163 149 140 147 131 306 108 119 222 213 193 131 145 167 150 172 183 153 190 173 202 205 179 186 198 97 354 349 93 50 211 171 96 343 147 252
266 261 258 248 252 261 255 312 344 353 333 162 140 150 135 120 69 131 189 232 212 221 169 156 196 140 183 172 173 199 205 281 202 165 119 143 114 307 127 211 167 142 257 18 113 158 170
268 267 253 249 238 234 237 258 296 338 328 165 126 154 161 142 132 222 204 182 195 195 189 235 125 106 165 168 166 201 207 246 179 147 164 184 114 162 194 246 173 176 202 177 136 234 226
268 266 260 252 237 227 226 226 257 316 355 91 93 80 185 187 167 203 195 228 199 197 183 179 203 189 164 166 168 196 187 42 201 171 159 184 241 73 356 357 350 211 191 164 130 96 205
257 261 261 263 257 231 218 216 220 229 147 16 112 126 306 229 316 202 192 198 207 186 200 171 163 124 134 136 299 177 182 12 319 189 22 102 136 169 192 185 131 197 194 183 142 132 195
258 257 259 256 255 251 230 210 207 215 152 103 136 182 174 195 224 215 214 181 206 219 211 180 216 201 161 132 92 175 133 155 56 345 97 158 203 153 257 84 168 206 185 190 197 218 197
257 249 251 251 249 244 238 223 206 199 133 99 156 169 155 147 198 207 184 214 208 211 171 215 221 203 189 202 198 192 143 206 170 82 153 261 192 113 303 340 196 251 214 198 218 235 259
257 256 252 246 245 236 235 227 212 193 141 134 130 101 202 182 183 195 215 223 228 161 231 224 227 123 209 232 79 93 41 140 160 157 179 164 142 109 251 47 17 271 200 196 195 201 213
266 262 258 251 243 238 230 224 217 206 181 130 179 129 190 239 194 210 203 209 230 211 224 210 214 210 190 121 93 58 52 67 58 31 89 159 135 159 169 74 245 213 196 198 202 207 217
269 267 265 251 246 240 232 224 218 213 193 133 162 151 163 240 211 212 224 223 232 231 243 245 181 327 155 69 86 124 111 38 221 104 22 42 134 166 186 201 289 264 188 161 171 239 215
259 266 268 266 242 238 233 225 219 213 207 179 169 142 135 126 234 201 199 216 216 214 224 198 349 170 112 120 164 209 203 174 194 266 38 119 79 216 122 204 237 304 185 171 95 261 219
267 259 255 264 264 241 232 226 219 215 209 192 170 167 125 196 240 172 204 193 143 173 210 125 148 166 155 186 197 202 211 183 195 194 168 138 166 209 216 230 263 192 129 124 189 258 217
271 269 268 264 257 253 233 225 221 214 210 196 191 185 176 180 248 177 193 159 154 179 177 140 131 195 173 196 193 185 209 208 189 179 186 179 176 196 139 214 258 155 150 197 221 315 168
273 274 273 268 258 252 232 223 218 213 208 202 206 183 171 164 231 198 230 194 189 176 153 179 166 151 173 180 183 199 216 181 197 221 129 204 198 198 190 219 355 191 205 213 168 198 204